CZ-6A DEB

Satellite information

Favourite Embed

Satellite Type and Status

DEBRISIN ORBIT

Key statistics

Satellite CZ-6A DEB at a glance.

Uptime

1129

Days in orbit

Revolutions

≈ 14.5

Per day

Orbit

SSO

Sun Synchronous Orbit

Inclination

98.7

Latest

Satellite identification and parameters

Extended collection of information and parameters for CZ-6A DEB.

Object identification

Identified? True

Debris? True

Object name: CZ-6A DEB

International designator: 2022-151AFW

Object number (NORAD): 56646

Object ID (CCSDS): 56646

Country: PEOPLES REPUBLIC OF CHINA (PRC)

Current information (Y/N): Y

RCS size: SMALL

Orbital parameters

Period: 99.41 minutes

Inclination: 98.7219 deg

SMA: 7108.542 km

Apoapsis: 806.218 km

Periapsis: 654.596 km

RAAN: 40.3129 deg

Eccentricy: 0.01066477

Argument of periapsis: 168.6575 deg

Mean anomaly: 191.7058 deg

Mean motion: 14.48544944 rev/day

Mean motion (dot): 0.0000428 rev/day2

B* drag term: 0.0010726407 1/REarth

Two-line elements (TLE)

Creation date: Dec. 8, 2025, 6:20 p.m.

Reference frame: TEME

Reference center: EARTH

Epoch: Dec. 8, 2025, 9:41 a.m. UTC

TLE line 0: 0 CZ-6A DEB

TLE line 1: 1 56646U 22151AFW 25342.40368220 .00004280 00000-0 10726-2 0 9991

TLE line 2: 2 56646 98.7219 40.3129 0106648 168.6575 191.7058 14.48544944138434

Live tracking on map

Real-time ground track for satellite CZ-6A DEB.

In-orbit conjunctions

A list of the most updated potential collisions computed for object CZ-6A DEB.

Target Orbit TCA Probability of collision Miss distance Type
CZ-6A DEB SSO 2025-08-04 14:20:34 0.000196412 119.0 (m) DEBRIS
COSMOS 2251 DEB LEO 2024-09-02 16:38:44 0.00015103 282.0 (m) DEBRIS

Associated space launch

Chinese satellite reported for atmospheric/ocean/environmental/spatial parameter research purposes, details TBD.

CZ-6A DEB was lifted into orbit during the mission ‘Long March 6A | Yunhai 3’, on board a Long March 6A space rocket.

The launch took place on Nov. 11, 2022, 10:52 p.m. from Launch Complex 9A.

For more information about the launch, click the button.

Launch to space Long March 6A | Yunhai 3
Long March 6A | Yunhai 3

Agency: N/A

Status: Launch Successful

Launch date: Nov. 11, 2022, 10:52 p.m. UTC

Rocket: Long March 6A

Launch pad: Launch Complex 9A

Location: Taiyuan Satellite Launch Center, People's Republic of China

...

Latest news about this satellite

There are no fresh news available about this satellite. Check back as we update our databases every day.


Newsletter sign-up

Weekly statistics, charts and insights to help you stay on top of the space industry.